Find Starlink 2088

NORAD ID: 47371 Int'l Des: 2021-005 Owner: SPXS Country: US Constellation: starlink operational
LEOCIRCULARSTARLINK_TYPE

現在のビュー

3D地球を読み込み中...

About Starlink 2088

Starlink 2088 (NORAD 47371) is a starlink constellation satellite (v1.0) launched Jan 20, 2021 by SPXS of US. It operates in LEO, CIRCULAR, STARLINK_TYPE orbit with a mass of 260.00 kg.

Starlink 2088について

説明を読み込み中...

次回通過

Passes for default location (London). Set your location on the main map for personalized predictions.

高度履歴

Loading altitude history...

軌道要素

1 47371U 21005Y 26169.68462095 -.00000358 00000-0 21965-6 0 9990
2 47371 53.1610 316.5116 0001014 68.0489 292.0620 15.31708005298442
Epoch: Jun 18, 2026 • Age: 16 hours

現在のステータス

高度 475.4 km
速度 7.63 km/s
衛星直下点 47.36°N, 43.02°E
打ち上げ日 Jan 20, 2021
運用期間 5.4 years
タイプ internet

技術仕様

分類 Payload
質量 260.00 kg
乾燥質量 248.00 kg
総質量 260.00 kg
長さ 0.20 m
直径 2.80 m
スパン 9.00 m
形状 Box + pan
製造者 SPXS
バスタイプ Starlink
フェーズステータス In Orbit
所有者/国 SPXS/US

Most Searched